Theta_e
307 306 307 306 306 306 306 306 306 306 306 307 307 306 307 307 307 307 307 308 307 307 308 308 309 309 309 309 309 310 311 311 312 314 317 318 316 316 317 316 314 312 313 314 313 314 314 315 314 314 317 319 317 318 318 319 328 338 336 326 321 323 325 326 328 325 320 321 323 320 316 314 316 318 315 313 315 320 319 316 315 313 313 313 314 313 312 313
307 307 308 308 308 307 307 307 307 306 307 307 308 308 308 308 308 308 308 308 308 308 308 308 308 309 309 309 310 311 312 312 313 314 317 319 317 317 317 315 313 313 313 313 313 314 316 316 314 315 320 320 317 319 320 318 324 339 333 319 325 335 330 328 330 326 319 318 319 319 317 314 315 316 314 314 319 320 318 316 314 315 315 312 311 313 312 314
307 308 308 308 309 308 308 308 308 307 308 309 309 310 309 310 310 309 309 309 309 309 309 309 309 309 310 310 311 313 312 313 314 314 316 318 317 316 315 313 313 313 312 313 314 313 316 316 313 317 322 319 318 321 324 320 320 331 328 321 335 338 328 327 326 322 320 317 317 319 316 315 316 315 314 315 318 318 317 317 315 316 316 313 312 312 311 314
306 307 308 308 308 309 309 309 309 309 309 309 310 311 310 311 311 310 310 310 310 311 310 310 310 311 311 313 313 314 313 314 316 315 316 316 315 314 314 313 313 312 313 313 314 314 315 314 312 318 321 318 321 320 322 323 318 320 322 328 335 326 321 325 325 322 321 317 315 316 316 316 315 314 315 316 317 318 317 317 316 315 315 314 312 310 310 312
306 307 307 308 309 309 310 310 310 309 309 310 310 311 311 312 312 311 311 312 312 312 312 312 313 313 314 314 315 315 315 317 316 313 315 315 314 313 313 314 313 312 313 314 316 315 314 313 313 319 319 317 320 318 319 323 319 319 323 329 330 321 318 322 325 321 317 316 315 316 317 315 314 315 316 316 316 317 317 316 316 315 313 312 311 309 308 309
307 307 307 308 309 309 310 311 309 309 309 310 311 312 313 313 312 312 312 313 314 314 314 314 314 315 315 316 317 316 314 316 315 313 315 314 313 314 314 314 313 312 313 315 316 314 315 314 314 319 320 317 317 316 316 318 317 320 325 326 327 321 318 321 322 320 317 315 316 316 315 313 314 316 317 317 316 317 316 316 315 313 309 309 309 307 308 310
310 308 308 308 309 309 309 311 310 310 312 312 313 313 314 314 314 314 314 314 314 315 315 315 315 315 316 315 317 319 317 316 315 317 317 313 314 314 314 314 313 313 312 314 315 315 317 316 316 318 320 317 315 316 316 315 315 319 324 324 323 319 319 322 321 320 318 315 315 314 312 313 314 315 316 316 315 315 314 312 310 308 305 306 308 307 307 308
311 310 310 309 309 309 310 311 311 313 314 314 314 315 315 316 316 315 315 315 315 315 315 315 315 314 314 315 318 323 323 319 316 318 319 317 316 315 314 314 313 313 312 313 314 315 316 315 315 315 317 316 314 316 314 314 317 320 323 323 320 317 320 322 319 319 318 315 314 312 313 315 313 312 314 314 315 314 312 311 309 308 307 306 308 307 306 305
313 312 311 310 311 311 311 312 313 314 315 315 316 316 317 316 317 317 316 316 316 315 315 315 315 314 314 314 317 323 323 319 318 319 319 318 318 315 314 314 313 313 312 314 314 313 314 316 317 315 316 317 314 315 314 314 319 320 322 320 317 316 317 317 317 317 315 315 313 312 315 315 312 311 314 317 316 313 313 313 313 314 312 308 306 306 304 304
314 313 312 312 311 311 312 314 315 315 316 317 317 317 318 318 318 318 317 318 317 317 316 315 316 314 313 314 318 322 320 321 322 320 321 318 316 315 314 314 314 313 313 315 314 313 314 316 315 313 317 317 313 314 313 314 315 316 318 316 315 315 314 315 317 315 312 313 313 313 315 314 312 312 316 320 316 312 314 313 312 314 312 307 305 304 302 302
315 314 314 313 311 313 314 315 316 316 317 318 318 318 319 319 319 319 319 319 318 317 316 315 315 314 314 315 321 322 318 321 322 320 321 319 316 315 314 314 314 313 314 314 314 314 314 314 312 311 316 315 314 314 314 314 313 313 314 314 316 316 314 315 315 314 312 313 314 314 315 315 311 312 319 318 313 311 313 312 310 311 310 306 304 303 301 301
316 315 315 313 311 314 315 316 316 317 318 318 319 320 320 320 320 321 320 319 318 317 315 315 314 314 314 315 319 319 317 319 320 318 319 318 316 314 315 316 315 314 314 314 315 316 315 314 313 314 316 314 315 315 313 313 312 313 313 314 318 318 317 316 314 314 312 314 315 314 315 318 315 317 322 315 311 313 312 312 309 307 307 306 303 302 300 300
316 315 314 313 313 315 316 316 317 317 319 320 320 320 320 321 320 320 319 318 317 315 314 313 313 313 313 315 317 314 315 317 318 318 317 315 315 315 316 317 316 315 315 315 315 315 315 314 314 315 316 316 318 314 313 314 312 314 313 312 316 318 321 317 312 312 313 314 315 313 316 326 325 322 321 312 309 314 313 311 308 306 307 305 303 301 300 299
316 315 314 314 315 316 316 316 317 318 319 321 321 321 321 320 321 320 318 317 315 313 312 311 312 313 314 316 315 312 314 314 316 318 316 316 316 316 317 316 316 316 316 316 314 314 314 314 313 314 313 315 316 311 315 321 318 315 311 316 319 316 326 324 312 314 315 313 313 312 317 325 325 323 319 310 309 314 313 311 309 307 306 304 303 301 300 299
316 315 314 315 316 316 316 317 318 319 320 321 321 322 321 320 321 319 317 315 312 312 311 311 312 313 314 316 313 313 314 314 317 318 317 318 317 316 317 316 316 315 316 315 314 314 313 313 314 316 314 312 315 317 321 325 327 323 314 324 328 317 325 327 314 315 316 312 310 312 318 321 319 321 319 310 309 314 311 311 310 307 305 303 302 300 299 299
316 314 314 315 316 316 317 318 319 320 321 322 322 322 321 321 321 318 316 313 311 312 311 313 315 313 315 316 313 313 315 315 317 317 317 318 316 316 316 316 315 314 315 314 314 313 312 315 314 314 314 312 319 329 328 324 328 329 318 323 331 321 320 322 316 316 316 313 311 311 317 319 318 321 320 311 311 313 310 312 310 305 304 301 300 299 299 298
316 315 315 316 316 316 318 319 320 321 321 322 322 322 321 321 321 317 314 313 314 315 313 314 315 313 314 315 314 315 314 314 316 316 317 317 316 315 313 314 312 311 312 311 313 312 310 314 312 312 316 315 319 325 324 321 325 330 321 318 325 321 318 319 319 317 315 315 314 313 314 315 317 318 316 312 311 312 310 312 309 304 303 301 300 299 298 298
316 316 316 316 316 317 319 320 321 321 322 322 321 322 322 321 320 316 314 314 314 315 315 313 312 317 318 315 314 316 313 313 315 316 316 316 315 314 313 312 309 309 312 312 312 312 313 316 317 318 318 314 316 317 319 323 326 330 324 320 323 321 318 318 319 318 317 317 316 316 316 316 316 315 314 311 310 313 311 309 306 303 302 301 300 299 298 298
316 316 316 317 318 319 320 321 321 321 321 322 322 322 321 319 317 315 313 314 317 319 321 317 315 321 321 315 315 314 314 314 315 315 314 316 314 312 312 310 311 313 314 314 312 313 317 319 319 319 317 315 316 316 318 321 323 326 324 323 325 323 320 318 318 318 315 314 317 317 317 318 317 316 314 309 310 316 313 307 304 302 301 300 299 299 298 297
316 317 316 318 320 320 321 321 321 321 321 322 322 320 322 324 323 321 317 317 321 321 322 320 317 320 319 315 316 314 314 314 313 314 313 314 313 313 312 311 315 317 317 321 317 313 317 319 318 319 319 318 315 314 314 316 317 318 319 320 320 320 319 316 316 318 313 314 320 317 317 319 318 317 313 307 313 317 311 307 304 302 301 300 300 299 298 297
317 318 318 319 321 321 321 321 321 321 321 321 321 321 324 326 326 324 323 323 320 315 319 319 314 316 316 313 315 313 314 314 313 313 312 314 313 313 314 313 317 319 319 324 318 312 314 317 320 319 317 316 315 313 312 313 313 314 316 317 318 318 317 315 315 315 313 314 320 317 317 320 318 316 311 308 314 312 306 305 303 301 301 300 299 299 298 298
316 318 319 319 321 321 321 320 319 320 320 321 321 320 319 319 319 318 320 326 323 315 317 318 313 316 315 312 314 313 315 318 316 314 312 313 313 313 317 317 319 322 319 318 316 314 315 318 318 316 314 313 314 314 312 313 314 314 316 316 319 319 318 319 317 314 313 316 322 320 317 318 316 314 309 306 307 304 302 303 302 301 300 299 299 298 297 297
316 318 319 319 320 320 320 320 319 319 320 321 321 319 316 317 318 315 316 324 325 318 319 321 319 320 319 315 315 313 316 319 319 317 313 312 314 315 317 317 319 322 318 316 319 319 320 321 318 313 313 313 315 316 316 315 316 318 319 318 322 320 319 324 321 316 315 314 319 319 316 318 316 312 308 305 304 302 301 301 300 300 299 299 298 297 297 296
317 319 320 319 319 320 320 321 320 320 321 321 321 320 318 318 317 314 316 321 323 321 319 319 318 322 323 317 314 315 317 319 320 318 313 313 315 315 317 318 319 320 318 316 319 320 321 322 319 315 315 315 315 317 318 317 319 323 322 319 321 320 319 323 321 318 318 316 316 316 320 326 324 318 311 306 305 303 302 301 301 300 299 299 297 296 296 295
318 319 320 320 320 320 320 321 321 320 321 321 322 321 318 318 314 312 319 324 325 324 319 314 316 321 319 314 314 316 317 319 319 316 312 312 316 315 316 316 317 320 318 315 316 317 319 318 318 319 318 316 316 318 321 321 322 326 325 320 320 321 321 321 318 318 321 323 318 314 324 335 334 328 316 308 308 305 303 302 301 300 299 298 298 297 296 296
320 320 320 320 320 320 321 321 321 321 322 321 322 321 318 316 314 313 321 328 328 327 322 317 318 319 314 313 314 315 320 320 313 311 312 311 313 315 317 315 316 319 318 316 316 318 319 316 316 321 321 319 318 320 323 322 322 324 324 321 319 317 318 320 319 319 325 326 316 312 320 329 332 330 319 312 311 307 304 304 301 300 299 298 298 297 296 296
321 320 320 320 320 320 321 322 321 321 323 323 321 320 317 317 315 313 321 330 329 326 323 318 316 316 313 311 311 318 326 321 311 310 312 312 311 312 317 318 316 316 316 317 320 321 319 317 316 318 321 321 320 322 323 321 325 326 322 321 322 320 320 322 320 321 323 321 320 319 317 319 324 324 317 314 313 309 306 305 302 301 299 299 298 297 297 296
321 321 321 321 321 322 321 322 322 320 322 322 320 319 317 316 315 315 324 334 331 323 321 316 312 312 310 308 311 318 318 315 316 314 308 309 311 311 317 320 319 318 315 318 326 323 316 317 320 319 319 321 321 325 323 320 323 325 319 319 322 322 324 325 321 322 319 314 323 327 317 316 323 325 318 312 313 313 309 306 303 301 299 299 298 297 297 296
320 321 321 321 323 323 322 322 322 321 322 321 319 319 318 315 315 319 328 333 329 321 317 314 310 309 311 310 311 314 311 311 316 314 308 309 310 311 315 318 321 319 312 316 325 322 314 313 318 320 320 322 322 322 320 319 319 319 315 317 321 321 322 324 323 323 318 315 323 326 318 317 325 330 323 313 313 317 313 307 303 301 300 299 299 298 297 296
319 320 321 322 323 322 322 323 322 323 322 320 320 318 316 316 318 327 332 331 328 321 314 312 312 311 313 314 313 312 311 311 312 311 311 312 312 311 311 312 317 319 316 318 321 319 315 311 312 317 319 320 321 315 312 316 315 313 315 319 323 323 321 322 323 320 317 321 325 322 317 317 322 328 324 315 313 312 310 307 303 301 300 299 299 298 297 296
319 320 321 322 323 321 321 322 322 323 321 320 320 317 316 319 323 333 334 327 327 322 314 313 313 311 314 317 316 312 311 312 311 313 314 313 314 314 312 311 316 322 323 321 320 319 317 314 314 317 315 316 320 316 312 314 314 315 320 323 324 326 323 323 325 321 321 327 324 317 314 315 320 325 319 313 306 303 305 306 303 301 301 300 299 298 297 296
319 319 320 321 323 322 322 322 322 323 321 320 320 319 322 325 327 334 330 324 328 325 318 318 313 311 314 316 316 313 312 313 311 314 317 315 316 316 316 318 319 324 324 321 323 321 319 319 317 315 313 315 322 321 315 316 318 319 322 324 325 325 322 324 325 322 323 324 317 314 314 315 320 321 315 310 304 300 301 303 302 301 300 300 300 298 297 296
319 319 319 320 322 322 321 322 322 323 322 320 320 321 325 329 330 331 327 327 331 322 319 321 316 315 316 314 316 313 313 315 312 314 316 315 317 315 316 319 319 323 323 319 320 321 321 322 317 313 314 316 320 321 318 320 320 318 320 325 326 324 323 326 324 318 319 319 312 311 314 317 321 317 310 306 302 298 298 300 301 300 299 300 299 298 297 296
319 319 319 319 320 321 321 321 321 322 321 319 322 324 325 329 330 329 327 328 328 321 318 320 316 316 316 316 319 314 312 315 312 313 315 313 316 318 317 316 315 320 322 318 318 320 323 325 320 317 317 316 315 317 323 326 319 315 319 321 322 326 328 326 324 321 321 320 314 310 314 323 324 313 304 302 299 297 298 299 300 299 298 299 298 298 298 296
320 320 320 320 320 321 320 321 321 322 320 320 324 326 326 328 328 328 329 327 325 322 320 319 316 315 315 317 320 315 313 316 314 313 316 315 317 320 321 317 314 318 322 320 319 318 319 324 324 318 313 314 315 316 320 323 318 314 314 317 319 323 324 320 319 319 318 320 318 315 318 322 317 307 301 301 299 298 298 298 299 300 299 298 299 298 298 297
320 320 320 319 320 320 320 321 321 320 320 322 326 328 325 326 327 328 328 324 324 322 319 320 320 317 318 319 319 315 314 318 317 314 315 317 317 319 323 322 316 315 318 321 322 319 318 323 321 314 312 313 313 315 316 319 319 315 313 319 319 316 318 320 318 314 313 318 319 317 320 317 311 308 303 301 301 300 298 298 299 300 299 299 299 299 298 297
317 316 316 316 318 320 319 320 320 319 320 323 328 327 324 325 326 326 325 321 321 320 319 323 322 319 320 320 320 319 317 319 317 315 317 318 318 318 321 323 318 313 315 319 323 322 322 324 319 314 315 313 309 312 316 314 316 317 318 321 316 313 319 321 321 320 318 319 319 317 319 318 316 315 306 301 303 301 299 300 300 299 299 300 300 299 298 298
315 314 314 314 317 318 318 319 318 318 320 324 327 327 325 325 323 322 322 320 319 319 322 326 324 320 321 321 321 321 318 319 317 317 320 319 319 320 319 320 317 314 314 315 317 320 320 322 318 313 315 315 311 315 318 313 311 316 319 316 314 318 322 319 319 323 321 320 322 322 318 316 317 316 312 309 306 303 302 301 300 300 300 300 301 300 299 298
313 314 315 314 314 316 317 318 317 318 322 325 327 326 326 325 322 322 322 320 322 323 324 326 324 322 323 322 323 322 318 319 318 318 321 319 320 319 316 318 317 315 316 315 316 320 319 321 320 313 312 315 314 316 321 318 311 312 313 312 314 319 321 320 318 320 322 320 322 323 319 319 319 317 319 318 307 302 303 301 301 301 300 301 301 300 299 298
312 315 316 312 313 316 316 315 316 319 323 325 325 323 323 322 322 323 322 320 323 323 324 327 326 324 324 321 322 322 320 320 318 319 321 319 319 319 315 317 318 316 316 313 315 319 316 317 320 316 312 314 317 318 321 320 316 315 316 315 316 315 316 319 316 317 321 321 324 323 318 322 323 315 318 317 305 301 302 301 301 301 300 300 301 300 299 297
312 317 316 310 311 314 314 315 318 321 323 324 323 322 321 321 321 322 320 319 322 321 322 328 326 324 324 322 322 321 320 322 320 319 321 319 319 319 315 317 318 316 315 313 316 320 317 317 322 320 315 318 322 316 313 316 317 318 318 318 318 316 316 319 317 316 318 319 324 323 317 320 319 310 310 310 303 301 302 301 301 301 301 301 300 300 299 297
313 318 314 309 310 313 314 317 318 319 322 322 321 320 319 319 320 321 320 319 322 321 321 324 323 323 324 323 324 323 321 323 321 321 321 319 320 321 315 315 317 316 318 318 318 318 318 321 323 321 318 319 317 311 307 311 314 315 316 316 318 318 319 320 318 317 317 316 317 318 317 318 312 305 306 305 301 302 301 301 302 302 301 301 300 300 299 297
314 315 310 308 310 312 315 318 317 317 319 317 317 318 316 317 319 319 319 319 321 321 321 321 321 322 322 321 321 322 321 322 322 322 322 321 322 321 316 315 315 316 319 321 318 316 317 320 321 320 320 317 313 311 309 309 311 313 315 314 316 318 318 318 317 317 320 319 317 317 318 316 310 306 306 303 301 302 301 300 303 303 302 301 301 301 300 299
312 310 309 309 310 312 316 319 318 318 317 315 316 317 315 316 317 318 319 320 321 321 321 321 319 321 321 319 319 321 321 321 321 320 321 322 320 315 313 314 314 316 317 317 318 318 317 321 321 319 321 319 315 315 314 312 312 315 316 314 314 317 316 314 313 314 317 319 318 316 316 315 312 307 305 304 303 303 302 301 302 304 305 304 303 302 301 299
311 310 310 309 309 310 313 316 317 318 317 316 316 316 315 315 316 317 317 319 320 320 320 320 319 319 319 318 318 320 320 319 320 319 318 319 317 312 311 312 312 316 317 315 316 316 316 320 320 318 319 319 318 318 316 316 315 313 314 313 312 313 314 313 314 315 316 317 317 316 315 314 312 307 306 306 304 304 305 303 301 303 306 305 304 302 301 300
313 312 310 309 309 310 311 311 313 316 316 316 316 315 315 315 315 315 316 317 318 318 319 319 318 318 319 318 318 319 319 317 318 318 318 319 318 313 310 309 311 314 314 313 314 315 318 319 318 318 319 317 319 319 314 314 317 315 313 313 312 312 311 312 315 315 314 315 315 315 314 313 313 310 308 308 306 306 306 305 303 304 305 304 303 302 300 298
313 312 310 310 310 310 311 311 312 313 314 315 314 314 314 314 314 314 315 316 317 317 317 318 317 316 317 318 317 318 319 317 317 317 318 319 318 312 307 307 309 311 311 309 311 314 318 317 315 317 317 315 317 318 312 312 316 316 315 314 313 310 309 310 312 313 314 314 313 312 312 312 313 312 309 308 308 307 306 306 306 306 305 303 302 302 299 295
309 310 309 309 311 311 311 311 311 311 312 313 313 313 313 313 313 314 315 315 316 316 316 316 315 315 316 317 317 317 317 317 317 316 316 317 316 312 309 308 308 308 308 308 309 313 318 317 315 315 314 312 312 313 311 310 312 313 314 314 312 309 309 309 309 310 312 312 311 310 310 310 310 309 309 309 308 306 305 306 305 304 302 301 300 301 299 295
305 306 306 306 308 310 310 310 311 311 311 311 311 311 312 312 312 313 314 315 315 315 315 315 314 314 314 315 316 315 315 317 317 316 316 315 315 314 314 313 310 307 308 309 310 311 315 317 314 312 312 310 308 308 307 307 309 310 311 311 310 307 306 306 306 307 307 308 308 308 307 307 306 305 305 306 306 305 305 304 301 299 301 302 301 300 298 295
304 305 305 305 305 306 308 310 310 310 310 310 310 311 310 311 312 312 313 315 315 314 314 314 314 314 314 314 315 315 314 315 316 316 315 314 313 313 314 315 312 307 307 309 309 308 311 314 311 310 312 309 304 304 305 304 306 308 308 308 306 304 304 304 304 304 304 305 305 304 304 304 303 302 303 303 304 304 304 302 300 299 301 302 300 298 296 295
299 299 301 304 306 305 307 309 309 310 310 310 310 310 310 311 311 311 312 313 314 314 314 314 314 314 313 314 314 314 314 314 315 315 314 314 313 312 312 314 313 310 308 308 308 308 309 310 307 308 313 310 302 301 303 301 302 303 304 303 301 302 304 302 302 303 303 304 303 302 303 302 301 301 301 302 302 301 300 300 300 299 298 298 299 298 295 294
296 296 297 302 306 305 306 308 309 309 310 309 309 310 310 311 310 311 312 312 312 312 312 313 314 313 314 314 314 314 313 312 309 307 306 308 309 309 309 309 309 310 309 307 308 308 308 309 308 308 313 308 300 299 302 302 303 304 303 302 301 301 301 300 300 301 301 302 302 302 302 301 300 300 300 300 300 299 298 298 300 299 296 295 297 297 295 294
Wind_Speed
3 3 4 4 4 3 3 3 3 4 4 3 3 3 4 4 3 3 4 4 4 5 6 7 7 9 10 11 12 14 15 16 16 13 6 4 4 6 3 0 1 1 4 5 5 5 4 2 1 3 3 2 4 2 3 3 3 4 4 3 0 3 3 5 6 5 3 3 6 4 2 2 5 5 4 3 2 4 6 6 4 4 5 7 10 12 12 11
3 3 4 4 4 4 4 3 4 4 4 3 3 3 3 3 3 3 3 4 4 5 6 7 7 8 9 11 12 14 16 16 15 10 5 2 6 7 3 2 1 2 4 5 5 5 4 1 0 5 5 2 3 3 2 2 3 4 3 2 2 5 5 5 6 5 3 3 5 5 2 3 5 4 3 3 6 7 8 9 4 4 7 7 10 11 11 10
4 4 4 4 4 3 3 4 4 4 3 3 2 2 2 2 3 4 4 4 4 4 5 6 7 8 9 10 11 13 15 13 8 4 2 4 8 7 4 3 1 3 4 3 4 3 4 2 2 4 5 3 1 3 3 2 1 1 4 1 5 6 4 5 6 6 6 3 4 6 2 2 5 4 1 3 7 7 7 9 4 6 8 6 6 6 8 8
6 5 5 4 4 3 3 3 3 2 2 3 3 3 3 3 3 4 4 4 4 5 5 6 7 7 8 9 10 12 13 8 2 2 3 6 8 6 4 3 3 4 4 2 3 2 2 2 4 4 4 2 3 3 1 2 1 1 4 3 6 3 2 6 6 7 6 3 3 4 3 4 5 2 1 3 6 8 8 8 6 7 10 8 5 6 9 9
6 6 5 4 4 4 3 3 1 1 2 3 3 4 3 3 4 4 5 4 4 5 6 6 7 7 7 8 8 9 9 5 1 3 4 5 6 5 3 2 3 5 5 3 3 3 1 3 5 5 4 1 3 3 1 3 2 2 2 5 5 4 3 7 4 4 3 3 3 5 6 5 3 1 1 2 4 7 8 8 7 7 6 8 6 6 8 8
7 6 5 5 4 4 4 2 0 0 2 2 3 3 4 4 4 5 6 5 5 5 6 7 8 7 7 7 6 5 4 1 3 2 4 6 4 2 1 2 3 5 7 4 2 3 2 4 5 3 3 2 0 1 4 3 2 1 4 3 4 4 4 6 3 2 0 2 5 4 4 2 3 5 3 5 9 10 11 9 7 6 4 4 6 6 7 7
7 6 5 6 5 5 4 2 1 1 1 2 2 3 4 5 5 6 6 6 6 6 7 7 8 8 6 5 4 3 3 4 7 4 6 6 5 3 2 3 3 4 8 6 3 3 3 4 2 3 4 2 2 3 3 2 3 2 3 4 4 4 5 6 4 5 3 4 8 2 4 4 3 6 3 6 11 12 13 7 6 7 7 5 6 8 8 8
6 7 6 6 6 5 3 2 1 1 1 1 2 3 4 5 5 7 7 7 7 6 7 7 8 7 5 2 0 3 2 6 8 6 8 7 7 6 5 4 4 5 8 7 5 5 4 4 4 4 3 1 3 2 1 2 3 3 5 4 3 2 6 7 6 8 7 6 6 1 6 10 7 4 2 10 15 12 7 6 7 5 8 8 10 9 7 8
7 7 6 6 6 4 3 3 1 1 1 1 2 3 4 6 6 7 7 7 7 6 6 6 6 5 3 1 5 2 4 5 5 5 6 6 7 8 7 5 4 6 7 6 5 6 5 4 4 4 3 2 3 2 0 1 2 4 5 3 4 5 6 7 7 8 5 4 3 2 9 10 4 2 3 12 14 8 5 8 7 7 9 9 9 9 8 9
7 7 6 7 6 4 3 3 1 1 1 1 2 4 5 6 6 7 7 8 7 6 6 5 5 3 3 3 6 0 5 2 3 4 4 5 7 7 7 5 4 7 7 4 4 6 4 4 4 4 4 3 3 2 1 2 2 4 3 4 6 7 7 4 7 8 3 4 5 5 10 8 4 1 3 10 5 5 9 8 7 9 9 8 8 8 9 10
8 8 7 8 6 4 3 2 1 1 1 1 2 3 5 6 7 8 8 8 7 6 6 4 3 3 4 5 5 3 4 2 2 3 3 5 6 6 6 4 4 7 7 4 4 5 3 5 6 5 2 1 2 0 1 3 2 2 1 5 7 7 8 6 7 8 2 3 5 7 6 5 3 0 7 8 3 8 8 7 8 10 7 7 8 7 9 11
10 10 9 9 6 5 4 3 2 1 1 1 3 4 5 6 7 8 8 8 8 6 6 4 3 5 4 3 4 8 6 3 3 3 3 4 6 6 4 4 4 5 6 4 4 4 3 5 7 4 2 3 1 1 2 3 2 1 2 4 8 7 8 8 4 3 0 2 4 6 3 6 1 6 11 5 6 7 8 8 7 8 6 7 7 7 8 10
12 11 10 9 6 6 5 4 3 1 1 2 3 4 5 7 7 8 8 8 7 6 5 3 4 7 5 0 6 11 12 9 7 4 4 5 6 5 3 3 4 4 5 4 4 5 4 5 7 4 2 5 1 1 2 2 1 1 2 1 5 7 7 8 1 3 2 2 3 4 3 7 6 10 11 4 6 7 9 7 6 6 5 6 6 6 7 11
11 10 10 8 6 6 5 4 2 1 1 2 4 5 6 7 8 8 8 7 6 5 4 1 5 7 4 3 5 6 10 10 9 7 6 7 5 4 4 3 3 3 3 5 6 6 4 4 6 3 1 3 1 1 3 5 3 2 2 1 3 2 5 7 1 0 3 2 1 3 2 6 8 12 10 4 6 8 8 5 5 5 5 5 5 6 6 9
10 9 8 8 7 6 5 4 2 1 2 3 4 6 7 8 8 7 7 6 4 2 1 3 6 6 2 5 5 4 6 7 8 10 8 7 6 4 5 5 4 5 5 6 6 5 4 4 5 3 1 1 4 2 3 4 4 2 1 3 3 2 5 9 5 3 1 2 2 4 2 6 8 12 10 3 8 8 7 4 6 5 6 6 5 6 5 6
9 8 8 8 8 7 6 4 2 1 2 4 5 7 7 8 7 5 4 3 3 3 4 4 5 5 1 3 2 2 5 6 7 10 9 9 8 5 6 7 5 6 6 5 5 4 3 4 2 2 1 1 4 4 3 4 4 3 1 4 3 3 3 7 5 1 1 2 3 1 2 5 6 10 10 5 8 7 4 4 6 6 6 6 5 5 5 6
9 9 8 8 9 8 5 3 1 1 3 4 6 7 7 8 5 2 1 4 5 5 5 4 4 3 1 2 1 2 4 5 6 8 9 9 8 7 8 7 5 6 6 5 4 3 3 4 1 1 2 2 3 5 3 2 4 3 0 3 4 4 3 4 4 3 5 4 2 1 1 7 9 11 11 6 6 6 4 5 6 6 5 5 5 5 6 7
9 9 9 9 9 7 5 3 1 2 4 5 7 7 7 5 2 1 3 5 5 5 4 2 3 1 3 2 2 2 2 5 6 9 10 8 8 8 7 5 5 7 6 4 2 2 2 3 2 1 3 2 2 5 3 5 5 4 3 3 4 3 4 4 4 3 5 4 2 2 3 9 11 12 10 7 6 6 6 6 6 6 6 6 6 6 6 7
10 10 10 10 8 6 4 2 1 2 5 5 6 6 4 3 1 2 4 4 2 2 0 2 3 2 3 3 1 2 5 6 7 8 8 8 9 7 6 6 6 6 4 2 1 1 1 3 3 1 1 2 5 7 9 9 7 7 5 4 4 4 5 5 5 5 2 4 5 4 6 8 10 11 8 8 7 7 7 5 6 6 6 6 6 6 6 7
12 11 11 10 8 6 4 2 1 3 6 5 5 4 2 1 2 1 1 2 5 5 2 4 6 2 2 3 1 5 5 5 4 5 8 9 10 8 5 4 5 5 3 3 2 0 3 3 2 5 7 8 10 11 10 5 4 4 2 2 4 5 6 5 5 5 1 0 5 4 4 7 9 9 7 8 7 9 8 6 7 6 6 6 6 6 6 7
13 12 10 10 8 6 4 2 1 4 6 6 5 3 1 2 1 2 2 3 8 10 7 6 7 6 5 2 4 7 4 2 1 2 9 9 9 7 1 2 4 1 1 3 2 2 3 4 7 10 10 8 7 8 7 2 2 2 2 3 4 5 6 7 5 5 1 2 4 2 3 8 9 6 6 6 7 8 7 6 7 6 6 5 6 7 6 5
16 13 10 10 8 5 4 3 2 6 7 6 4 1 2 2 1 1 0 3 8 8 9 7 4 7 7 4 6 6 2 1 1 1 8 7 4 5 1 4 4 3 2 2 3 2 1 4 12 12 6 2 2 4 5 4 3 2 2 1 4 4 4 7 5 4 2 2 3 2 2 9 8 3 6 6 7 6 6 7 6 6 7 6 6 6 6 6
18 15 11 10 8 6 6 4 4 7 8 6 4 2 2 2 0 1 2 0 6 3 5 6 5 6 6 5 7 7 3 5 3 4 9 9 2 3 4 4 4 3 2 4 5 4 3 7 12 8 5 4 2 3 6 3 2 3 3 2 4 3 1 4 4 4 2 1 2 2 2 7 4 4 6 6 5 6 7 8 7 6 7 6 6 5 6 7
19 15 11 10 9 7 5 4 6 8 8 7 8 6 2 1 2 1 2 0 4 4 4 6 5 5 5 4 7 10 5 4 3 4 11 11 4 3 4 5 5 3 4 7 8 6 7 8 4 3 6 6 5 3 7 4 2 3 5 5 5 5 5 6 4 4 3 2 2 1 3 5 3 1 2 3 4 6 6 7 8 7 6 6 6 6 6 6
18 15 12 10 9 7 3 4 8 9 7 5 8 9 4 2 3 3 2 1 3 5 4 4 3 4 5 3 7 9 3 2 3 4 10 11 6 4 2 3 4 5 6 6 6 6 9 6 3 5 3 5 5 4 5 7 3 4 5 9 10 8 7 6 3 4 4 3 3 4 3 4 5 4 2 4 4 5 5 6 7 6 6 6 6 6 6 5
19 16 14 12 11 7 2 3 6 6 5 5 6 7 7 5 5 4 3 3 4 5 1 2 2 4 5 3 4 6 3 2 2 2 6 7 5 4 2 1 1 4 5 4 3 3 5 3 3 4 4 5 4 4 5 7 5 2 4 8 9 6 5 4 2 1 0 2 3 3 1 5 5 6 3 4 5 5 4 6 6 5 5 5 5 5 4 5
22 20 17 15 13 11 6 2 4 4 3 5 7 9 9 7 6 4 3 3 5 3 3 1 0 3 5 1 1 5 3 3 1 3 3 3 1 3 3 3 2 2 3 4 0 3 3 1 1 4 4 4 5 4 6 7 6 3 4 5 6 6 6 6 5 3 2 2 4 3 1 3 4 5 4 5 7 5 4 4 4 3 4 4 4 4 4 4
24 22 19 17 15 16 11 4 5 8 4 3 8 11 8 7 6 3 3 2 4 2 3 1 0 2 1 1 3 4 2 1 4 1 2 3 1 3 2 5 6 4 2 5 3 4 2 1 2 5 4 4 6 4 7 9 4 6 3 6 6 6 6 5 5 2 1 1 4 4 1 1 5 5 3 4 4 1 1 2 1 2 2 3 3 3 3 3
26 24 21 19 17 18 18 10 7 8 6 5 9 11 9 8 5 4 2 4 1 2 1 1 2 1 1 2 3 3 1 2 2 2 2 3 0 3 3 5 6 5 1 4 5 4 0 2 5 7 4 5 4 2 4 8 4 4 5 7 5 6 5 4 5 3 2 1 4 6 4 2 5 5 3 2 2 3 3 4 3 3 2 2 2 1 2 3
28 26 23 20 16 19 21 19 16 11 6 7 10 11 10 6 3 3 4 5 1 1 1 1 2 1 4 5 0 1 1 1 1 1 2 1 2 4 2 2 5 5 1 3 1 3 2 2 2 4 3 5 4 3 1 3 3 4 6 5 5 5 4 3 2 4 2 3 6 6 6 5 3 5 3 3 1 2 3 4 4 3 2 1 1 1 1 2
31 29 26 22 18 19 17 15 23 20 9 11 14 12 8 2 1 4 7 3 2 1 2 1 2 3 6 6 3 1 2 1 1 2 2 0 2 3 2 1 3 3 3 4 3 4 5 3 2 2 2 4 5 4 3 3 4 5 4 4 3 3 3 4 4 3 1 5 5 4 4 5 4 4 3 2 2 2 3 4 7 7 5 4 3 3 1 2
34 31 29 26 22 21 15 12 22 25 16 16 16 10 4 2 3 5 4 1 1 3 4 3 2 4 6 4 3 4 4 1 1 3 4 2 3 3 2 4 4 3 2 4 2 4 3 4 3 3 1 4 5 4 3 5 5 5 4 4 3 3 3 3 3 0 3 6 3 2 2 4 5 5 2 3 4 4 5 5 9 10 8 6 5 4 2 1
34 32 30 30 26 23 21 17 18 21 22 20 12 4 2 5 6 5 5 3 2 2 3 3 3 5 7 4 2 4 3 2 3 3 2 3 3 4 4 3 6 4 1 4 3 1 3 5 1 1 2 3 7 4 1 1 1 4 5 4 3 2 0 3 3 2 4 4 2 2 1 1 5 3 2 3 4 4 6 3 8 9 8 7 6 4 3 1
34 34 33 33 32 29 27 23 19 19 24 19 7 2 4 5 4 4 7 5 1 1 2 3 4 5 5 4 4 5 3 3 5 4 2 4 3 4 5 5 5 4 3 3 3 4 2 4 2 5 2 3 7 6 5 5 3 3 4 5 4 4 4 4 4 3 4 3 2 2 1 2 3 1 2 3 2 3 3 2 7 7 6 5 4 3 3 2
32 34 34 32 31 32 30 28 24 22 23 13 3 4 7 6 1 2 6 4 1 1 2 2 5 5 3 2 2 4 4 3 4 5 2 4 4 4 5 6 6 4 3 4 2 2 5 5 6 3 1 4 6 3 4 6 2 2 2 4 2 4 5 2 3 4 3 2 3 2 2 4 3 2 1 1 3 3 3 4 6 5 5 4 4 4 4 4
28 30 30 28 29 32 33 30 27 27 21 8 4 7 7 5 2 2 3 3 3 5 4 2 3 4 3 2 2 4 2 2 4 4 2 3 3 4 4 4 7 8 5 5 3 2 3 4 5 1 0 3 4 3 3 3 2 2 2 3 4 4 6 3 2 1 3 1 3 1 2 4 1 0 0 3 3 3 2 3 6 6 5 5 5 5 5 4
24 21 18 20 27 31 32 29 29 29 18 5 7 8 5 4 4 3 2 1 2 5 7 3 2 4 5 3 3 5 3 2 3 4 3 2 3 5 5 4 5 11 10 4 2 3 4 3 4 2 2 1 1 3 3 2 3 4 2 5 3 2 4 3 1 3 3 3 4 1 4 4 1 2 1 2 2 3 4 5 5 5 5 6 6 6 5 5
22 15 8 15 25 28 27 27 28 23 9 4 10 9 4 5 4 2 2 2 2 3 4 4 4 4 5 5 4 5 5 4 4 4 3 3 3 4 7 3 3 8 9 4 1 2 3 2 5 1 4 1 3 3 2 4 2 4 3 3 3 2 1 2 2 2 1 3 4 3 3 3 4 4 3 5 7 7 7 6 6 7 7 7 7 6 6 5
19 8 3 11 22 23 25 29 24 13 4 5 10 8 4 4 4 3 3 2 2 2 3 4 2 2 3 5 4 4 6 5 5 4 3 3 3 4 5 3 2 3 4 5 4 1 3 2 4 2 1 0 4 2 3 2 1 2 1 0 1 2 3 2 2 3 2 2 3 5 4 3 5 5 7 10 11 11 10 8 8 9 9 8 7 7 7 6
11 3 1 9 17 20 25 24 13 6 5 5 5 4 2 3 3 3 3 3 1 1 3 3 2 2 3 3 2 3 5 5 6 5 3 4 3 4 3 2 3 2 0 3 4 1 2 2 3 3 2 1 1 2 6 6 3 2 2 2 1 0 2 1 1 3 3 2 2 4 5 5 4 3 7 9 10 12 12 11 10 10 10 9 8 7 7 7
5 1 1 9 16 18 19 12 5 4 4 2 2 2 1 1 2 1 1 3 2 1 2 3 3 3 3 3 2 3 4 4 5 4 3 4 3 2 2 1 4 4 3 3 3 2 2 3 3 2 1 3 4 3 4 6 5 5 5 5 4 3 3 1 3 1 2 2 4 4 6 7 4 1 4 6 9 11 11 11 10 10 10 10 8 7 7 7
3 2 1 8 17 18 12 4 2 2 2 3 3 2 1 1 2 2 0 2 2 1 2 2 3 3 3 4 3 3 4 3 5 4 3 4 4 3 1 2 2 3 4 3 3 3 3 3 3 2 2 4 5 2 3 3 3 4 2 3 3 3 4 4 6 4 1 1 2 2 3 5 2 1 1 5 8 9 9 9 10 9 9 8 7 7 6 6
2 2 1 9 18 14 7 3 2 2 2 2 1 2 2 2 1 2 1 1 2 2 2 1 2 3 3 3 2 3 4 3 4 4 3 3 4 3 2 2 2 3 3 2 2 2 2 2 2 1 2 2 4 3 1 2 3 2 2 2 4 3 4 4 5 3 3 3 1 2 4 4 2 3 0 3 4 4 6 7 8 8 7 6 7 7 6 6
2 2 2 9 16 9 3 4 5 5 4 1 2 1 1 1 2 2 2 3 3 3 3 2 2 2 2 1 2 3 4 3 3 4 3 4 3 0 3 2 2 3 2 1 2 3 2 2 3 2 2 2 3 2 2 2 1 3 2 2 3 3 5 3 2 3 2 5 6 3 7 5 2 4 2 3 4 4 5 5 5 6 5 6 6 6 5 5
3 2 2 5 9 5 2 2 3 5 7 5 3 3 1 0 2 3 2 2 2 3 3 1 1 2 3 2 2 1 3 3 2 2 2 2 1 2 3 3 1 3 2 1 1 2 3 3 3 4 6 6 4 3 3 2 1 1 2 3 4 5 7 4 2 3 4 4 6 5 7 4 3 3 2 1 3 4 6 5 4 5 5 6 6 5 5 5
3 1 1 2 2 2 1 0 2 2 5 6 4 3 4 4 2 1 3 3 2 2 1 1 2 2 2 3 2 3 5 4 2 1 2 3 2 1 1 2 1 2 1 2 3 1 1 2 4 8 10 9 7 6 4 4 4 4 4 6 6 6 7 5 4 4 5 2 3 7 5 1 3 3 5 6 4 6 7 6 5 6 6 6 5 4 4 5
2 2 3 2 0 1 2 1 1 1 2 4 4 3 6 8 4 1 3 4 3 3 1 0 2 2 3 5 5 4 5 3 2 2 2 2 2 2 1 1 1 2 1 2 2 3 3 3 6 9 10 7 4 5 4 5 6 8 7 8 7 5 7 7 6 6 5 3 8 8 5 4 8 8 8 8 7 7 7 6 6 7 6 5 3 3 5 6
1 1 2 2 1 3 4 4 5 4 2 3 3 2 5 9 8 5 4 3 2 4 3 1 5 10 9 6 4 3 3 3 4 4 3 2 1 0 1 1 2 1 2 1 1 3 4 5 5 6 6 3 2 3 4 4 3 4 6 8 8 8 9 10 9 7 8 7 10 6 7 8 11 8 8 9 9 8 8 8 7 5 3 3 3 5 6 6
1 1 1 1 1 3 4 4 6 8 8 5 3 4 6 8 10 7 3 4 2 5 7 6 8 13 14 10 6 4 5 5 6 6 6 4 3 3 1 2 2 1 3 2 1 2 3 3 2 4 3 2 1 0 3 4 2 2 6 8 7 8 10 10 8 8 7 6 8 6 6 10 11 7 6 7 7 6 6 6 4 3 4 5 6 7 7 7
2 1 1 1 1 1 1 3 6 7 8 7 6 8 7 8 11 8 3 5 6 5 8 11 12 11 12 12 10 10 11 10 9 8 7 6 4 4 4 4 3 2 1 3 1 1 3 2 2 3 2 1 1 0 2 3 3 4 8 10 5 5 7 8 8 5 3 6 10 8 8 11 11 6 5 5 5 4 6 8 6 5 6 7 7 7 7 7
4 3 3 3 2 2 1 2 5 5 6 7 8 8 6 9 12 8 3 5 7 5 8 14 15 7 6 10 13 15 16 13 11 8 7 8 7 4 4 5 6 6 4 3 2 1 3 1 2 3 3 3 1 3 4 3 2 4 12 13 7 6 7 7 5 6 7 10 11 7 7 11 9 2 3 4 5 6 8 8 7 6 6 7 7 8 8 8
5 3 3 3 1 3 3 2 4 5 6 7 9 9 8 10 9 7 4 4 3 4 5 10 12 6 5 10 13 14 11 7 4 2 3 3 2 2 1 1 3 5 7 6 2 1 4 4 3 3 5 2 1 3 4 4 1 6 11 9 10 11 10 5 3 8 11 9 7 7 9 10 5 1 1 6 7 7 8 7 6 6 6 7 7 8 8 8
Wind_Direction
272 261 251 244 241 247 255 264 269 274 284 291 295 293 295 303 309 320 319 323 327 327 329 327 328 328 330 334 334 336 334 332 331 324 313 290 212 179 180 29 350 210 162 163 163 150 122 97 105 38 49 57 14 334 343 358 59 53 76 99 298 198 203 189 186 196 180 269 272 318 20 184 281 306 314 324 1 325 313 302 264 272 277 248 265 284 301 307
291 280 269 259 245 241 247 252 263 272 284 293 295 293 297 309 307 314 326 330 329 327 326 325 327 327 332 337 337 340 336 333 331 325 323 285 177 169 164 116 80 181 160 170 185 162 119 125 251 54 46 43 350 348 360 349 66 79 113 109 240 203 213 196 184 203 202 253 266 299 309 208 248 280 341 305 296 334 323 299 297 296 292 282 279 283 294 297
300 296 287 277 262 254 250 248 260 270 287 296 297 305 304 312 308 311 330 337 331 327 325 322 324 327 333 336 341 345 338 336 333 330 42 122 149 151 135 116 119 170 173 183 202 174 117 147 140 78 44 50 341 4 32 359 42 139 121 109 244 214 237 233 199 214 229 246 281 295 298 207 251 253 319 299 294 316 297 281 297 307 306 307 296 306 311 298
302 298 292 287 277 269 265 260 270 282 307 311 313 319 314 318 319 317 330 337 329 324 320 319 321 327 332 334 344 344 342 351 327 197 130 134 145 143 131 133 148 174 193 182 175 172 92 100 98 73 59 51 330 7 56 297 4 158 134 182 229 191 247 255 220 222 235 217 227 279 329 308 279 230 248 327 323 310 282 261 231 257 292 310 323 327 313 297
306 299 294 290 284 281 281 275 288 322 312 320 322 324 328 329 326 319 327 335 332 326 319 315 315 321 328 329 339 344 360 25 266 211 173 168 157 143 130 146 164 185 194 175 161 148 85 90 81 56 60 49 336 25 267 264 111 154 219 207 202 153 237 269 240 210 208 194 249 303 321 304 303 303 241 274 285 273 270 269 247 245 286 317 320 315 312 309
301 298 290 284 286 281 277 278 284 279 300 322 327 327 333 327 322 318 324 331 330 326 317 310 308 311 318 320 326 352 47 46 261 224 207 200 185 167 148 182 179 198 200 191 170 138 103 70 67 67 64 33 212 189 251 275 88 197 274 265 226 184 229 282 294 252 267 329 285 294 302 312 5 307 255 221 239 244 257 270 288 308 358 337 317 343 358 359
295 294 285 277 278 274 270 262 231 238 290 310 315 322 324 320 319 316 319 324 323 321 313 305 301 302 309 313 317 18 86 245 264 249 233 218 218 231 214 227 213 215 209 202 188 145 117 87 106 147 93 30 203 214 250 322 37 168 261 299 265 203 221 263 289 285 295 280 265 274 316 296 275 284 295 258 250 248 263 294 337 344 26 31 21 30 34 38
288 287 280 273 273 270 255 241 234 238 288 305 313 321 322 319 317 315 317 319 322 321 311 303 300 303 312 299 129 14 353 249 261 255 243 235 241 239 226 233 227 223 208 206 203 164 139 132 172 160 104 251 188 184 246 9 22 177 228 276 282 242 246 269 290 284 282 267 259 285 286 270 244 237 294 269 264 264 276 7 19 19 41 46 47 40 39 43
285 283 280 275 269 260 237 230 224 217 297 317 318 322 319 317 319 320 318 319 325 320 312 306 300 299 291 127 95 18 277 240 259 260 249 243 239 230 226 233 226 215 193 201 196 164 171 177 195 186 168 194 171 181 100 59 282 212 212 268 299 295 287 294 290 273 267 255 243 258 272 277 269 190 250 258 261 293 15 42 20 44 53 49 51 40 36 36
281 283 286 281 267 246 231 222 207 205 290 315 319 323 319 319 322 320 320 323 324 319 315 304 292 276 222 134 94 264 254 229 270 269 262 243 228 223 227 231 218 201 183 184 178 160 169 193 189 151 142 139 151 180 107 147 213 199 200 265 269 280 287 272 266 269 257 247 225 230 266 286 310 74 264 264 259 15 36 31 18 59 63 50 48 38 37 35
271 282 287 283 263 230 223 208 194 210 249 318 322 320 320 324 325 323 325 327 325 324 316 302 282 243 184 137 128 211 250 251 276 279 263 236 221 222 219 217 204 194 190 171 181 189 187 193 159 114 121 175 153 150 248 193 164 177 227 298 283 299 297 255 260 279 286 269 210 191 254 300 355 164 237 256 21 46 50 35 33 65 63 50 48 37 38 32
268 277 280 278 254 217 215 200 185 205 246 316 320 323 327 326 326 326 329 329 327 321 309 300 252 202 157 114 197 226 242 251 271 280 255 221 201 200 189 191 191 196 207 181 175 190 174 179 144 119 215 158 138 307 227 201 134 168 36 321 301 343 319 273 270 293 119 249 194 160 290 309 273 229 242 271 11 28 61 52 45 67 58 49 46 38 40 28
267 271 271 267 240 209 204 191 185 212 276 316 323 329 326 325 329 331 332 331 327 317 304 294 218 183 148 135 236 234 243 249 261 256 219 185 171 178 178 189 194 202 219 193 158 148 146 174 150 143 158 121 189 242 94 48 68 290 29 20 306 357 320 281 43 37 350 245 189 145 288 287 263 252 262 322 6 18 55 55 51 67 58 48 45 42 41 29
261 264 262 251 219 197 193 184 193 228 300 317 329 330 323 329 333 331 334 332 327 313 298 251 178 162 143 251 253 249 245 244 247 225 188 177 170 185 199 184 177 171 179 165 141 123 124 153 137 115 107 106 198 214 32 8 12 311 332 10 340 351 280 295 348 17 325 330 128 124 217 265 277 279 285 354 32 23 34 53 69 71 62 52 43 45 40 33
259 258 249 232 202 187 182 175 186 235 304 315 330 330 325 331 332 332 338 336 338 324 248 138 152 140 92 277 264 257 239 231 228 215 200 199 198 205 199 176 153 135 140 148 135 121 119 128 118 109 208 11 52 64 359 350 3 22 297 303 339 206 265 310 309 190 245 339 61 119 207 271 276 281 287 21 47 22 13 45 78 76 65 55 41 44 39 32
260 251 234 216 195 183 178 171 174 253 306 320 328 328 326 329 329 333 348 15 55 85 90 113 140 122 43 272 250 225 223 216 216 211 204 201 205 200 171 159 142 132 139 140 134 131 96 82 83 110 157 39 67 83 40 2 334 354 197 251 270 223 276 319 322 27 58 27 24 129 225 284 280 275 284 20 36 10 25 67 81 79 65 58 48 43 39 29
257 244 224 205 192 183 176 169 175 279 311 320 324 326 326 326 321 317 62 87 88 82 78 112 134 99 288 235 219 253 217 199 199 192 190 192 198 182 152 138 122 124 121 111 123 118 44 44 38 329 52 59 98 102 59 324 285 309 335 226 247 222 224 297 306 348 37 58 338 310 217 260 271 277 291 355 3 341 53 96 96 83 71 63 56 47 41 34
251 234 214 199 191 183 170 162 214 292 317 324 326 327 328 330 315 192 144 121 90 65 56 98 120 87 275 230 205 231 142 164 172 166 175 177 176 169 147 129 120 114 90 59 64 75 13 20 63 28 25 38 120 119 166 230 216 219 213 211 257 248 227 253 266 297 10 26 299 302 267 261 272 280 296 337 341 353 49 102 105 85 77 65 54 51 43 38
240 225 210 198 187 177 165 172 251 313 321 320 327 330 335 2 33 158 153 136 113 102 210 213 162 147 251 259 224 115 102 135 150 157 164 156 156 148 118 108 106 102 93 76 346 48 100 52 67 155 235 197 189 177 199 214 194 193 199 185 209 249 252 242 246 262 349 352 293 271 264 268 278 283 310 342 353 24 38 82 89 74 72 63 54 52 41 43
227 216 206 193 181 173 170 202 263 329 322 317 336 350 347 32 26 329 230 178 210 211 212 203 198 217 279 277 147 125 120 126 137 164 161 156 152 130 90 71 63 63 108 155 199 52 112 133 192 216 215 208 207 205 209 207 140 147 164 188 209 233 266 265 262 273 124 289 277 264 271 277 278 289 331 346 4 28 24 61 75 64 64 56 54 50 39 42
218 210 200 188 183 178 183 218 302 323 316 320 341 3 193 169 104 302 286 263 244 235 248 231 209 248 266 229 161 152 134 107 42 139 160 162 152 143 99 42 80 54 245 165 149 49 99 168 224 228 219 212 206 206 218 242 104 136 206 255 264 237 258 265 257 287 35 146 266 337 336 284 276 307 352 5 34 27 14 60 70 63 68 54 51 46 36 38
218 208 196 191 190 186 208 236 301 306 302 313 327 284 231 221 175 276 135 292 274 240 240 247 230 256 255 239 205 168 121 232 282 188 168 153 139 177 185 78 135 202 248 132 105 46 112 210 239 236 212 165 138 153 178 214 200 189 182 225 268 247 275 284 281 319 38 126 270 337 342 282 286 26 33 31 57 43 27 57 59 61 67 51 46 38 31 35
218 204 194 193 193 203 226 241 288 294 287 289 285 240 256 293 264 19 101 291 292 260 221 226 216 236 239 247 221 180 189 219 209 229 182 151 129 187 142 119 162 162 149 181 163 154 188 239 245 227 150 161 215 124 124 141 174 178 165 160 251 251 263 280 295 338 15 101 270 245 260 279 296 73 65 50 77 77 56 61 58 55 62 54 50 41 34 35
212 202 197 195 200 214 229 269 289 282 277 274 262 243 245 269 166 111 80 37 288 276 235 215 200 209 216 230 197 179 203 213 184 214 180 158 138 149 159 160 151 150 203 204 182 186 226 242 237 120 132 176 207 153 130 142 229 239 204 186 228 237 210 229 281 343 352 13 359 11 324 295 305 18 95 87 83 74 56 57 54 41 46 52 50 45 36 35
208 206 205 200 204 208 222 296 280 266 261 261 253 237 215 201 171 134 76 13 290 292 279 221 197 205 194 151 166 172 173 212 211 207 176 166 150 136 194 163 138 205 212 187 182 222 250 241 110 92 120 160 188 204 171 165 200 287 233 205 218 223 213 230 315 9 18 351 334 24 4 292 316 324 191 135 65 53 42 42 49 34 31 39 40 38 27 28
209 211 213 211 208 200 199 276 263 248 232 232 237 217 193 182 164 142 86 33 277 272 272 199 177 181 175 128 158 149 105 251 245 117 156 169 157 124 157 162 108 220 186 149 171 225 262 266 132 153 143 142 188 240 223 170 140 298 246 203 210 199 179 188 157 88 121 259 293 42 83 263 316 323 243 143 81 57 45 40 44 33 34 41 36 32 20 18
209 213 217 218 210 200 195 222 218 177 173 232 216 192 188 183 174 159 75 2 275 208 138 224 266 149 170 170 158 139 159 249 85 74 123 146 160 85 129 196 163 197 163 122 163 233 231 312 90 154 132 148 197 244 226 162 123 250 238 145 152 157 161 168 142 140 211 252 316 15 109 260 291 287 265 129 104 60 47 45 42 42 46 49 36 26 19 10
211 215 219 217 211 209 206 197 184 181 199 231 184 182 182 175 176 124 78 267 277 103 113 252 83 104 137 60 66 115 197 265 107 231 350 91 146 66 119 209 175 173 155 133 209 257 197 208 208 169 149 189 210 232 198 157 148 242 198 111 119 136 146 136 111 109 1 24 312 307 108 278 265 268 325 96 125 75 132 182 143 107 87 67 55 23 8 359
214 217 215 214 219 221 219 218 202 199 226 207 171 179 174 168 168 80 76 233 252 85 88 110 131 60 52 92 51 66 66 19 120 241 355 82 103 67 149 202 153 146 106 127 207 257 117 231 209 157 161 209 212 280 194 167 191 216 127 94 68 72 82 76 95 112 49 55 249 244 184 194 269 276 323 90 180 242 196 188 189 160 137 94 81 20 355 2
215 216 214 214 222 220 216 221 223 215 208 193 177 168 161 160 133 110 220 232 127 113 105 113 178 140 108 126 49 350 95 28 10 30 24 63 15 34 129 160 102 120 39 20 245 256 323 304 189 146 180 196 146 64 91 146 140 124 101 72 37 34 56 53 65 95 65 268 246 234 198 184 267 284 246 160 170 245 194 167 179 179 164 160 192 247 318 6
216 216 214 217 222 215 205 215 225 220 202 184 174 154 148 144 98 188 220 228 70 146 137 140 194 133 132 143 162 186 110 40 343 104 105 92 40 40 83 118 79 79 6 339 304 307 338 343 270 251 189 133 96 66 34 26 65 97 89 74 42 341 19 27 357 50 119 252 261 265 205 170 218 261 232 224 307 280 225 190 179 177 181 190 204 215 238 1
217 217 216 222 227 221 210 215 223 218 205 184 169 150 142 185 212 211 210 84 105 200 167 171 188 153 152 137 144 169 139 130 201 137 145 142 152 179 177 172 155 86 338 249 259 340 317 246 266 309 238 137 102 68 21 1 30 82 95 89 79 319 349 354 313 329 229 249 264 275 164 164 234 241 210 276 307 299 273 224 179 170 178 188 198 200 186 21
219 220 220 226 231 227 222 225 225 214 197 180 168 163 165 196 217 195 169 177 204 186 138 127 124 138 144 136 176 177 136 172 187 158 149 126 155 221 253 210 163 130 163 197 184 31 299 291 313 91 280 179 144 146 180 264 143 140 146 129 127 150 201 276 271 270 267 265 268 263 160 206 268 259 203 265 292 294 290 229 166 163 173 180 188 186 165 112
220 221 223 227 230 232 232 230 230 211 188 173 165 206 204 224 234 157 176 209 231 60 67 102 110 117 143 171 209 175 145 206 180 144 131 130 149 219 242 234 185 132 110 148 171 165 181 296 221 174 234 190 174 183 164 146 149 177 160 135 148 156 170 227 226 211 252 283 298 285 221 194 220 216 219 245 305 322 333 90 131 147 169 173 170 173 170 161
222 222 225 226 225 232 233 230 229 208 184 170 171 201 210 232 252 142 192 204 171 83 34 58 106 118 179 247 251 189 174 211 170 135 144 163 173 198 203 209 193 158 134 158 211 159 156 249 251 220 224 164 180 199 129 114 125 217 130 111 164 181 160 192 204 176 188 305 296 246 226 217 185 162 201 124 42 25 41 95 126 150 170 166 172 186 187 182
219 216 219 218 220 227 226 224 219 201 184 175 207 205 214 219 177 196 209 167 166 152 113 65 86 118 210 237 233 218 187 136 150 149 193 197 204 210 207 218 190 178 170 158 195 168 142 260 275 322 2 161 173 193 137 135 187 169 131 177 215 175 127 122 264 46 78 273 272 201 235 285 328 195 315 71 62 54 92 141 155 173 182 181 195 197 193 195
198 198 205 208 216 221 218 214 203 192 184 188 213 211 217 206 182 197 220 158 162 140 132 167 176 165 196 196 208 208 173 136 154 166 203 210 226 202 201 252 192 185 196 177 208 201 145 252 268 140 160 217 163 142 74 35 142 128 182 214 191 120 96 100 248 347 36 248 274 210 210 249 243 237 318 64 146 179 198 192 184 197 200 198 206 203 199 200
178 178 197 211 213 215 212 205 191 184 184 205 215 218 202 193 190 181 194 168 117 118 145 194 200 179 183 188 204 185 168 182 170 173 193 203 243 192 171 218 200 194 209 179 202 246 127 222 276 149 162 279 16 93 71 354 66 129 196 203 114 144 168 94 162 229 244 242 282 286 237 229 211 202 197 201 195 190 198 198 196 207 207 207 211 207 208 205
166 162 218 210 207 207 202 195 184 179 199 206 212 221 191 182 201 191 187 165 105 128 176 209 202 160 170 179 181 166 174 184 168 174 186 176 232 207 163 189 201 208 223 170 172 229 102 168 269 310 178 324 27 87 171 258 4 74 133 29 45 165 169 148 154 164 185 223 273 293 298 266 231 197 184 198 190 176 183 189 197 206 204 206 206 198 201 201
148 143 260 184 188 193 189 184 177 181 207 205 209 214 175 177 205 212 204 183 144 153 187 201 180 158 179 185 185 173 174 177 170 180 200 181 207 229 198 171 153 158 250 168 177 153 92 170 232 296 336 118 166 201 185 185 174 144 168 202 252 153 134 197 200 127 139 177 223 269 280 268 252 195 184 194 180 172 180 182 190 202 203 206 207 198 198 200
126 151 221 170 172 174 172 176 193 191 195 218 205 191 177 160 171 217 233 163 143 44 126 159 179 176 173 177 203 185 154 162 178 182 217 207 189 221 228 124 149 156 109 125 189 199 166 163 177 211 208 182 224 238 186 187 178 162 186 202 190 164 131 187 246 219 132 170 182 206 260 267 261 208 180 177 171 176 183 179 183 201 205 206 211 205 201 202
133 151 177 168 168 165 159 176 241 165 181 223 191 155 120 104 146 190 135 98 114 91 88 126 180 183 180 183 191 170 148 164 190 190 215 216 194 200 196 78 127 148 119 143 212 204 146 122 146 194 202 212 253 277 166 190 156 134 191 203 159 152 141 172 228 228 150 214 158 137 259 271 273 281 197 177 178 177 180 179 183 200 205 205 212 211 205 207
153 147 88 163 171 172 167 202 227 181 204 207 113 78 88 100 163 193 167 136 139 140 143 181 185 183 201 195 167 173 181 183 184 186 200 211 212 207 136 90 112 124 116 160 208 171 113 112 159 245 323 324 312 327 40 68 98 130 247 176 148 169 157 175 207 170 151 226 158 118 254 257 306 324 319 156 162 166 184 188 188 201 207 206 213 212 203 199
127 109 69 169 182 192 198 199 206 212 210 150 87 107 81 91 187 185 181 190 176 151 158 179 185 181 186 148 141 187 209 205 185 189 191 193 216 334 58 71 148 157 167 206 192 193 204 163 148 188 293 326 329 324 325 333 173 190 226 196 167 142 110 105 130 116 202 213 163 184 249 248 300 333 9 110 134 168 211 203 189 204 212 213 221 220 208 192
129 73 33 177 194 220 251 196 184 200 206 202 194 190 166 135 200 199 206 200 177 160 160 162 167 145 132 119 93 188 227 238 216 195 183 195 258 349 18 18 94 180 231 332 19 228 217 183 154 178 217 234 228 212 221 231 198 194 203 199 196 163 147 144 134 168 229 198 156 208 247 263 319 333 319 248 164 191 231 226 215 230 226 220 224 218 206 194
130 99 61 164 222 258 266 103 83 161 196 200 209 200 195 214 238 216 207 213 204 170 140 103 98 76 124 166 167 204 224 236 219 164 171 200 241 297 347 17 41 225 253 63 67 87 135 196 205 205 224 233 220 215 208 152 151 193 205 198 199 181 165 152 142 192 218 175 201 230 217 214 277 239 226 238 209 206 228 226 228 244 240 236 239 226 209 205
119 144 162 153 234 245 256 280 202 197 179 182 193 195 200 211 224 211 200 209 195 164 133 52 158 182 206 184 186 212 211 203 194 179 171 193 240 289 289 100 91 292 4 73 59 86 122 221 222 213 233 240 197 196 193 163 177 191 192 202 205 173 155 167 189 203 175 172 244 238 157 178 246 226 203 218 219 216 226 228 227 236 241 243 249 234 214 206
111 128 179 155 101 202 217 219 203 210 218 194 191 191 202 206 205 202 199 187 157 167 177 243 212 213 215 193 179 206 199 191 209 203 184 185 194 198 341 199 205 255 77 104 358 100 150 225 214 192 224 231 138 168 172 166 190 183 187 204 197 175 176 188 205 202 173 197 246 233 158 200 241 229 193 207 217 213 216 221 218 220 234 223 205 209 208 199
105 77 234 20 51 195 205 183 176 200 214 206 210 227 218 210 208 208 174 126 160 203 195 209 219 211 211 203 187 202 206 199 216 213 194 194 186 162 199 251 228 146 120 156 199 120 172 218 180 166 198 172 135 245 145 151 192 223 232 228 200 184 191 195 210 212 197 223 254 246 211 229 243 228 198 208 218 217 226 234 214 187 205 208 200 201 200 193
136 139 158 82 50 224 228 161 162 195 212 201 217 229 219 217 218 214 175 160 191 206 194 213 227 210 200 201 197 213 218 207 219 221 182 179 203 192 204 211 163 117 151 173 193 235 217 208 119 133 185 202 240 8 97 139 187 222 254 251 219 178 200 213 221 215 202 244 252 252 255 258 257 236 202 205 205 213 246 256 245 217 204 198 195 197 195 194
110 75 96 125 188 183 175 176 165 185 206 200 216 220 206 222 222 207 215 215 205 199 191 211 226 216 189 202 205 219 227 219 226 232 186 185 210 207 212 201 162 159 176 178 184 194 198 206 67 100 202 234 209 143 128 106 115 250 259 249 210 184 212 218 205 196 204 225 240 249 254 257 261 223 161 206 208 210 233 243 242 235 206 188 192 196 196 199
109 63 77 108 197 188 170 176 168 187 210 205 212 213 206 221 212 181 211 254 217 212 205 209 219 211 196 214 216 224 229 203 190 208 151 162 162 107 116 153 140 159 171 172 175 149 163 168 134 161 206 220 100 143 130 85 56 261 255 227 191 205 225 222 206 220 214 205 212 227 236 247 263 69 200 246 236 228 235 233 226 226 206 194 201 199 199 206